Time,TemperatureF,DewpointF,PressureIn,WindDirection,WindDirectionDegrees,WindSpeedMPH,WindSpeedGustMPH,Humidity,HourlyPrecipIn,Conditions,Clouds,dailyrainin,SolarRadiationWatts/m^2,SoftwareType,DateUTC
2013-03-18 00:00:00,59.9,56.3,30.04,NW,321,1.0,1.0,88,0.00,,,0.00,0,Wunderground v.1.15,2013-03-18 04:00:00,
2013-03-18 00:01:00,59.9,56.3,30.04,NW,321,0.0,1.0,88,0.00,,,0.00,0,Wunderground v.1.15,2013-03-18 04:01:00,
2013-03-18 00:02:00,59.9,56.3,30.04,SW,229,0.0,2.0,88,0.00,,,0.00,0,Wunderground v.1.15,2013-03-18 04:02:00,
2013-03-18 00:03:00,59.9,56.3,30.04,WSW,249,1.0,2.0,88,0.00,,,0.00,0,Wunderground v.1.15,2013-03-18 04:03:00,
2013-03-18 00:09:00,59.8,56.2,30.04,SW,218,1.0,2.0,88,0.00,,,0.00,0,Wunderground v.1.15,2013-03-18 04:09:00,
2013-03-18 00:14:00,59.9,56.3,30.04,SW,225,1.0,3.0,88,0.00,,,0.00,0,Wunderground v.1.15,2013-03-18 04:14:00,
2013-03-18 00:20:00,59.8,56.2,30.03,SSE,160,1.0,1.0,88,0.00,,,0.00,0,Wunderground v.1.15,2013-03-18 04:20:00,
2013-03-18 00:25:00,59.8,56.6,30.03,WNW,287,1.0,2.0,89,0.00,,,0.00,0,Wunderground v.1.15,2013-03-18 04:25:00,
2013-03-18 00:31:00,59.8,56.6,30.04,NW,309,0.0,0.0,89,0.00,,,0.00,0,Wunderground v.1.15,2013-03-18 04:31:00,
2013-03-18 00:37:00,59.7,56.5,30.04,SW,231,1.0,3.0,89,0.00,,,0.00,0,Wunderground v.1.15,2013-03-18 04:37:00,
2013-03-18 00:43:00,59.7,56.5,30.04,SW,221,1.0,3.0,89,0.00,,,0.00,0,Wunderground v.1.15,2013-03-18 04:43:00,
2013-03-18 00:48:00,59.7,56.5,30.03,West,265,1.0,3.0,89,0.00,,,0.00,0,Wunderground v.1.15,2013-03-18 04:48:00,
2013-03-18 00:54:00,59.7,56.5,30.03,WSW,250,1.0,1.0,89,0.00,,,0.00,0,Wunderground v.1.15,2013-03-18 04:54:00,
2013-03-18 01:00:00,59.7,56.5,30.03,SW,232,1.0,1.0,89,0.00,,,0.00,0,Wunderground v.1.15,2013-03-18 05:00:00,
2013-03-18 01:07:00,59.8,56.9,30.03,WSW,242,1.0,1.0,90,0.00,,,0.00,0,Wunderground v.1.15,2013-03-18 05:07:00,
2013-03-18 01:13:00,59.9,57.0,30.03,West,280,1.0,1.0,90,0.00,,,0.00,0,Wunderground v.1.15,2013-03-18 05:13:00,
2013-03-18 01:18:00,59.8,56.9,30.03,WNW,284,1.0,4.0,90,0.00,,,0.00,0,Wunderground v.1.15,2013-03-18 05:18:00,
2013-03-18 01:24:00,59.8,56.9,30.03,WSW,251,1.0,2.0,90,0.00,,,0.00,0,Wunderground v.1.15,2013-03-18 05:24:00,
2013-03-18 01:30:00,59.9,57.0,30.02,WNW,288,1.0,2.0,90,0.00,,,0.00,0,Wunderground v.1.15,2013-03-18 05:30:00,
2013-03-18 01:35:00,60.1,57.2,30.02,SE,130,1.0,2.0,90,0.00,,,0.00,0,Wunderground v.1.15,2013-03-18 05:35:00,
2013-03-18 01:40:00,60.1,57.2,30.02,SW,231,1.0,1.0,90,0.00,,,0.00,0,Wunderground v.1.15,2013-03-18 05:40:00,
2013-03-18 01:45:00,60.2,57.3,30.02,WSW,252,1.0,2.0,90,0.00,,,0.00,0,Wunderground v.1.15,2013-03-18 05:45:00,
2013-03-18 01:51:00,60.2,57.3,30.02,WSW,244,1.0,1.0,90,0.00,,,0.00,0,Wunderground v.1.15,2013-03-18 05:51:00,
2013-03-18 01:56:00,60.2,57.3,30.02,WSW,247,0.0,1.0,90,0.00,,,0.00,0,Wunderground v.1.15,2013-03-18 05:56:00,
2013-03-18 02:02:00,60.1,57.5,30.02,SE,136,1.0,1.0,91,0.00,,,0.00,0,Wunderground v.1.15,2013-03-18 06:02:00,
2013-03-18 02:07:00,60.1,57.5,30.02,ESE,114,1.0,3.0,91,0.00,,,0.00,0,Wunderground v.1.15,2013-03-18 06:07:00,
2013-03-18 02:13:00,60.2,57.6,30.02,South,175,1.0,1.0,91,0.00,,,0.00,0,Wunderground v.1.15,2013-03-18 06:13:00,
2013-03-18 02:18:00,60.2,57.6,30.01,WNW,282,1.0,1.0,91,0.00,,,0.00,0,Wunderground v.1.15,2013-03-18 06:18:00,
2013-03-18 02:24:00,60.3,57.7,30.01,WNW,282,0.0,1.0,91,0.00,,,0.00,0,Wunderground v.1.15,2013-03-18 06:24:00,
2013-03-18 02:30:00,60.3,57.7,30.01,SSW,210,1.0,1.0,91,0.00,,,0.00,0,Wunderground v.1.15,2013-03-18 06:30:00,
2013-03-18 02:36:00,60.3,57.7,30.01,SSW,209,0.0,1.0,91,0.00,,,0.00,0,Wunderground v.1.15,2013-03-18 06:36:00,
2013-03-18 02:42:00,60.2,57.6,30.01,WSW,255,0.0,2.0,91,0.00,,,0.00,0,Wunderground v.1.15,2013-03-18 06:42:00,
2013-03-18 02:48:00,60.1,57.5,30.01,North,7,0.0,3.0,91,0.00,,,0.00,0,Wunderground v.1.15,2013-03-18 06:48:00,
2013-03-18 02:54:00,60.0,57.7,30.01,West,260,0.0,2.0,92,0.00,,,0.00,0,Wunderground v.1.15,2013-03-18 06:54:00,
2013-03-18 02:59:00,60.0,57.7,30.01,WSW,258,1.0,2.0,92,0.00,,,0.00,0,Wunderground v.1.15,2013-03-18 06:59:00,
2013-03-18 03:04:00,60.1,57.8,30.01,WSW,255,1.0,1.0,92,0.00,,,0.00,0,Wunderground v.1.15,2013-03-18 07:04:00,
2013-03-18 03:10:00,60.2,57.9,30.01,SSE,158,0.0,0.0,92,0.00,,,0.00,0,Wunderground v.1.15,2013-03-18 07:10:00,
2013-03-18 03:15:00,60.3,58.0,30.01,WNW,284,0.0,1.0,92,0.00,,,0.00,0,Wunderground v.1.15,2013-03-18 07:15:00,
2013-03-18 03:21:00,60.4,58.1,30.01,West,281,0.0,0.0,92,0.00,,,0.00,0,Wunderground v.1.15,2013-03-18 07:21:00,
2013-03-18 03:26:00,60.5,58.2,30.01,WSW,238,0.0,0.0,92,0.00,,,0.00,0,Wunderground v.1.15,2013-03-18 07:26:00,
2013-03-18 03:32:00,60.5,58.2,30.00,WSW,238,0.0,1.0,92,0.00,,,0.00,0,Wunderground v.1.15,2013-03-18 07:32:00,
2013-03-18 03:37:00,60.5,58.2,30.00,WSW,238,0.0,1.0,92,0.00,,,0.00,0,Wunderground v.1.15,2013-03-18 07:37:00,
2013-03-18 03:43:00,60.6,58.3,30.00,WSW,238,0.0,0.0,92,0.00,,,0.00,0,Wunderground v.1.15,2013-03-18 07:43:00,
2013-03-18 03:48:00,60.3,58.0,30.01,SSE,154,0.0,3.0,92,0.00,,,0.00,0,Wunderground v.1.15,2013-03-18 07:48:00,
2013-03-18 03:54:00,60.0,57.7,30.01,WNW,285,0.0,2.0,92,0.00,,,0.00,0,Wunderground v.1.15,2013-03-18 07:54:00,
2013-03-18 03:59:00,59.8,57.5,30.01,WNW,287,0.0,2.0,92,0.00,,,0.00,0,Wunderground v.1.15,2013-03-18 07:59:00,
2013-03-18 04:05:00,59.7,57.7,30.01,WNW,287,0.0,0.0,93,0.00,,,0.00,0,Wunderground v.1.15,2013-03-18 08:05:00,
2013-03-18 04:11:00,59.7,57.7,30.01,WNW,287,0.0,0.0,93,0.00,,,0.00,0,Wunderground v.1.15,2013-03-18 08:11:00,
2013-03-18 04:17:00,59.7,58.0,30.01,WNW,287,0.0,1.0,94,0.00,,,0.00,0,Wunderground v.1.15,2013-03-18 08:17:00,
2013-03-18 04:22:00,59.7,58.0,30.01,WNW,287,0.0,0.0,94,0.00,,,0.00,0,Wunderground v.1.15,2013-03-18 08:22:00,
2013-03-18 04:28:00,59.6,57.9,30.01,WNW,287,0.0,0.0,94,0.00,,,0.00,0,Wunderground v.1.15,2013-03-18 08:28:00,
2013-03-18 04:33:00,59.5,57.8,30.02,WNW,287,0.0,0.0,94,0.00,,,0.00,0,Wunderground v.1.15,2013-03-18 08:33:00,
2013-03-18 04:39:00,59.4,57.7,30.02,WNW,287,0.0,0.0,94,0.00,,,0.00,0,Wunderground v.1.15,2013-03-18 08:39:00,
2013-03-18 04:44:00,59.4,57.7,30.02,WNW,287,0.0,0.0,94,0.00,,,0.00,0,Wunderground v.1.15,2013-03-18 08:44:00,
2013-03-18 04:50:00,59.3,57.6,30.01,WNW,287,0.0,0.0,94,0.00,,,0.00,0,Wunderground v.1.15,2013-03-18 08:50:00,
2013-03-18 04:55:00,59.2,57.5,30.01,WNW,287,0.0,0.0,94,0.00,,,0.00,0,Wunderground v.1.15,2013-03-18 08:55:00,
2013-03-18 05:01:00,59.1,57.7,30.02,WNW,287,0.0,0.0,95,0.00,,,0.00,0,Wunderground v.1.15,2013-03-18 09:01:00,
2013-03-18 05:06:00,59.1,57.7,30.02,WNW,287,0.0,0.0,95,0.00,,,0.00,0,Wunderground v.1.15,2013-03-18 09:06:00,
2013-03-18 05:12:00,59.1,57.7,30.02,WNW,287,0.0,0.0,95,0.00,,,0.00,0,Wunderground v.1.15,2013-03-18 09:12:00,
2013-03-18 05:17:00,59.0,57.6,30.02,WNW,287,0.0,0.0,95,0.00,,,0.00,0,Wunderground v.1.15,2013-03-18 09:17:00,
2013-03-18 05:22:00,59.0,57.6,30.02,WNW,287,0.0,0.0,95,0.00,,,0.00,0,Wunderground v.1.15,2013-03-18 09:22:00,
2013-03-18 05:27:00,59.0,57.6,30.02,WNW,287,0.0,0.0,95,0.00,,,0.00,0,Wunderground v.1.15,2013-03-18 09:27:00,
2013-03-18 05:32:00,59.0,57.6,30.02,WNW,287,0.0,0.0,95,0.00,,,0.00,0,Wunderground v.1.15,2013-03-18 09:32:00,
2013-03-18 05:37:00,59.0,57.6,30.02,WNW,287,0.0,0.0,95,0.00,,,0.00,0,Wunderground v.1.15,2013-03-18 09:37:00,
2013-03-18 05:43:00,59.0,57.6,30.02,WNW,287,0.0,0.0,95,0.00,,,0.00,0,Wunderground v.1.15,2013-03-18 09:43:00,
2013-03-18 05:48:00,58.9,57.5,30.02,WNW,287,0.0,0.0,95,0.00,,,0.00,0,Wunderground v.1.15,2013-03-18 09:48:00,
2013-03-18 05:54:00,58.9,57.8,30.02,WNW,287,0.0,0.0,96,0.00,,,0.00,0,Wunderground v.1.15,2013-03-18 09:54:00,
2013-03-18 06:00:00,58.9,57.8,30.03,WNW,287,0.0,0.0,96,0.00,,,0.00,0,Wunderground v.1.15,2013-03-18 10:00:00,
2013-03-18 06:05:00,58.9,57.8,30.03,WNW,287,0.0,0.0,96,0.00,,,0.00,0,Wunderground v.1.15,2013-03-18 10:05:00,
2013-03-18 06:10:00,58.9,57.8,30.03,WNW,287,0.0,0.0,96,0.00,,,0.00,0,Wunderground v.1.15,2013-03-18 10:10:00,
2013-03-18 06:16:00,58.9,57.8,30.03,WNW,287,0.0,0.0,96,0.00,,,0.00,0,Wunderground v.1.15,2013-03-18 10:16:00,
2013-03-18 06:22:00,58.8,57.7,30.03,WNW,287,0.0,0.0,96,0.00,,,0.00,0,Wunderground v.1.15,2013-03-18 10:22:00,
2013-03-18 06:28:00,58.8,57.7,30.03,WNW,287,0.0,0.0,96,0.00,,,0.00,0,Wunderground v.1.15,2013-03-18 10:28:00,
2013-03-18 06:33:00,58.8,57.7,30.04,NNW,329,0.0,1.0,96,0.00,,,0.00,0,Wunderground v.1.15,2013-03-18 10:33:00,
2013-03-18 06:39:00,58.8,57.7,30.04,NNW,329,0.0,1.0,96,0.00,,,0.00,0,Wunderground v.1.15,2013-03-18 10:39:00,
2013-03-18 06:44:00,58.8,57.7,30.04,NNW,329,0.0,1.0,96,0.00,,,0.00,0,Wunderground v.1.15,2013-03-18 10:44:00,
2013-03-18 06:50:00,58.8,57.4,30.04,NNW,348,0.0,0.0,95,0.00,,,0.00,0,Wunderground v.1.15,2013-03-18 10:50:00,
2013-03-18 06:55:00,58.8,57.4,30.04,NNW,348,0.0,0.0,95,0.00,,,0.00,0,Wunderground v.1.15,2013-03-18 10:55:00,
2013-03-18 07:00:00,58.7,57.3,30.04,NNW,348,0.0,0.0,95,0.00,,,0.00,0,Wunderground v.1.15,2013-03-18 11:00:00,
2013-03-18 07:06:00,58.7,57.3,30.04,NNW,348,0.0,1.0,95,0.00,,,0.00,0,Wunderground v.1.15,2013-03-18 11:06:00,
2013-03-18 07:11:00,58.6,57.2,30.04,NNW,348,0.0,0.0,95,0.00,,,0.00,0,Wunderground v.1.15,2013-03-18 11:11:00,
2013-03-18 07:17:00,58.5,57.1,30.05,NNW,348,0.0,0.0,95,0.00,,,0.00,0,Wunderground v.1.15,2013-03-18 11:17:00,
2013-03-18 07:22:00,58.4,57.0,30.05,NNW,348,0.0,0.0,95,0.00,,,0.00,0,Wunderground v.1.15,2013-03-18 11:22:00,
2013-03-18 07:28:00,58.3,56.9,30.05,NNW,348,0.0,0.0,95,0.00,,,0.00,0,Wunderground v.1.15,2013-03-18 11:28:00,
2013-03-18 07:33:00,58.4,57.0,30.05,NNW,348,0.0,0.0,95,0.00,,,0.00,0,Wunderground v.1.15,2013-03-18 11:33:00,
2013-03-18 07:39:00,58.4,57.0,30.05,NNW,348,0.0,0.0,95,0.00,,,0.00,0,Wunderground v.1.15,2013-03-18 11:39:00,
2013-03-18 07:44:00,58.4,57.0,30.05,NNW,348,0.0,0.0,95,0.00,,,0.00,7,Wunderground v.1.15,2013-03-18 11:44:00,
2013-03-18 07:50:00,58.3,56.9,30.06,NNW,348,0.0,0.0,95,0.00,,,0.00,7,Wunderground v.1.15,2013-03-18 11:50:00,
2013-03-18 07:55:00,58.3,56.9,30.06,NNW,348,0.0,0.0,95,0.00,,,0.00,7,Wunderground v.1.15,2013-03-18 11:55:00,
2013-03-18 08:00:00,58.3,56.9,30.07,NNW,348,0.0,0.0,95,0.00,,,0.00,7,Wunderground v.1.15,2013-03-18 12:00:00,
2013-03-18 08:05:00,58.2,56.8,30.07,NNW,348,0.0,1.0,95,0.00,,,0.00,12,Wunderground v.1.15,2013-03-18 12:05:00,
2013-03-18 08:10:00,58.2,56.8,30.07,NNW,348,0.0,0.0,95,0.00,,,0.00,12,Wunderground v.1.15,2013-03-18 12:10:00,
2013-03-18 08:15:00,58.1,56.7,30.07,NNW,348,0.0,0.0,95,0.00,,,0.00,14,Wunderground v.1.15,2013-03-18 12:15:00,
2013-03-18 08:21:00,58.1,56.7,30.07,NNW,348,0.0,0.0,95,0.00,,,0.00,16,Wunderground v.1.15,2013-03-18 12:21:00,
2013-03-18 08:26:00,58.1,56.7,30.07,NNW,348,0.0,0.0,95,0.00,,,0.00,19,Wunderground v.1.15,2013-03-18 12:26:00,
2013-03-18 08:31:00,58.1,57.0,30.07,NNW,348,0.0,0.0,96,0.00,,,0.00,26,Wunderground v.1.15,2013-03-18 12:31:00,
2013-03-18 08:36:00,58.1,56.7,30.07,NNW,348,0.0,0.0,95,0.00,,,0.00,39,Wunderground v.1.15,2013-03-18 12:36:00,
2013-03-18 08:42:00,58.2,57.1,30.07,NNW,348,0.0,0.0,96,0.00,,,0.00,46,Wunderground v.1.15,2013-03-18 12:42:00,
2013-03-18 08:48:00,58.4,57.3,30.07,NNW,348,0.0,0.0,96,0.00,,,0.00,53,Wunderground v.1.15,2013-03-18 12:48:00,
2013-03-18 08:54:00,58.5,57.4,30.07,NNW,348,0.0,0.0,96,0.00,,,0.00,69,Wunderground v.1.15,2013-03-18 12:54:00,
2013-03-18 09:00:00,58.6,57.2,30.07,NNW,348,0.0,0.0,95,0.00,,,0.00,70,Wunderground v.1.15,2013-03-18 13:00:00,
2013-03-18 09:06:00,58.7,57.3,30.07,NNW,348,0.0,0.0,95,0.00,,,0.00,81,Wunderground v.1.15,2013-03-18 13:06:00,
2013-03-18 09:11:00,58.9,57.5,30.07,NNW,348,0.0,0.0,95,0.00,,,0.00,209,Wunderground v.1.15,2013-03-18 13:11:00,
2013-03-18 09:17:00,59.6,58.2,30.07,NNW,348,0.0,0.0,95,0.00,,,0.00,362,Wunderground v.1.15,2013-03-18 13:17:00,
2013-03-18 09:22:00,60.6,58.9,30.07,ESE,106,0.0,1.0,94,0.00,,,0.00,188,Wunderground v.1.15,2013-03-18 13:22:00,
2013-03-18 09:28:00,61.2,58.9,30.07,ESE,106,0.0,1.0,92,0.00,,,0.00,107,Wunderground v.1.15,2013-03-18 13:28:00,
2013-03-18 09:33:00,61.2,58.6,30.07,ESE,106,0.0,1.0,91,0.00,,,0.00,165,Wunderground v.1.15,2013-03-18 13:33:00,
2013-03-18 09:39:00,61.1,58.1,30.07,ESE,106,0.0,1.0,90,0.00,,,0.00,171,Wunderground v.1.15,2013-03-18 13:39:00,
2013-03-18 09:45:00,61.2,58.2,30.07,ESE,123,0.0,2.0,90,0.00,,,0.00,169,Wunderground v.1.15,2013-03-18 13:45:00,
2013-03-18 09:51:00,61.3,58.0,30.07,ESE,123,0.0,1.0,89,0.00,,,0.00,165,Wunderground v.1.15,2013-03-18 13:51:00,
2013-03-18 09:56:00,61.3,58.0,30.07,ESE,123,0.0,1.0,89,0.00,,,0.00,188,Wunderground v.1.15,2013-03-18 13:56:00,
2013-03-18 10:02:00,61.5,58.2,30.08,ESE,123,0.0,0.0,89,0.00,,,0.00,151,Wunderground v.1.15,2013-03-18 14:02:00,
2013-03-18 10:07:00,61.5,58.2,30.08,ESE,123,0.0,0.0,89,0.00,,,0.00,160,Wunderground v.1.15,2013-03-18 14:07:00,
2013-03-18 10:13:00,61.5,57.9,30.08,ESE,123,0.0,0.0,88,0.00,,,0.00,192,Wunderground v.1.15,2013-03-18 14:13:00,
2013-03-18 10:18:00,61.7,58.1,30.08,ESE,123,0.0,0.0,88,0.00,,,0.00,192,Wunderground v.1.15,2013-03-18 14:18:00,
2013-03-18 10:24:00,62.0,58.1,30.08,ESE,123,0.0,1.0,87,0.00,,,0.00,216,Wunderground v.1.15,2013-03-18 14:24:00,
2013-03-18 10:29:00,62.1,58.2,30.08,ESE,123,0.0,1.0,87,0.00,,,0.00,243,Wunderground v.1.15,2013-03-18 14:29:00,
2013-03-18 10:35:00,62.2,58.3,30.08,ESE,123,0.0,2.0,87,0.00,,,0.00,167,Wunderground v.1.15,2013-03-18 14:35:00,
2013-03-18 10:41:00,62.3,58.4,30.08,ESE,123,0.0,1.0,87,0.00,,,0.00,176,Wunderground v.1.15,2013-03-18 14:41:00,
2013-03-18 10:46:00,62.4,58.5,30.08,ESE,123,0.0,1.0,87,0.00,,,0.00,188,Wunderground v.1.15,2013-03-18 14:46:00,
2013-03-18 10:52:00,62.3,58.1,30.08,ESE,123,0.0,1.0,86,0.00,,,0.00,257,Wunderground v.1.15,2013-03-18 14:52:00,
2013-03-18 10:58:00,62.4,58.2,30.08,ESE,123,0.0,1.0,86,0.00,,,0.00,260,Wunderground v.1.15,2013-03-18 14:58:00,
2013-03-18 11:03:00,62.6,58.0,30.07,ESE,123,1.0,1.0,85,0.00,,,0.00,269,Wunderground v.1.15,2013-03-18 15:03:00,
2013-03-18 11:09:00,62.7,58.1,30.07,ESE,123,1.0,2.0,85,0.00,,,0.00,320,Wunderground v.1.15,2013-03-18 15:09:00,
2013-03-18 11:15:00,62.9,58.3,30.07,ESE,123,1.0,2.0,85,0.00,,,0.00,214,Wunderground v.1.15,2013-03-18 15:15:00,
2013-03-18 11:20:00,62.8,58.2,30.07,ESE,123,1.0,1.0,85,0.00,,,0.00,281,Wunderground v.1.15,2013-03-18 15:20:00,
2013-03-18 11:27:00,62.7,58.5,30.07,ESE,115,1.0,3.0,86,0.00,,,0.00,250,Wunderground v.1.15,2013-03-18 15:27:00,
2013-03-18 11:33:00,62.6,58.7,30.07,ESE,114,1.0,3.0,87,0.00,,,0.00,192,Wunderground v.1.15,2013-03-18 15:33:00,
2013-03-18 11:39:00,62.2,58.3,30.07,ESE,113,1.0,3.0,87,0.00,,,0.00,146,Wunderground v.1.15,2013-03-18 15:39:00,
2013-03-18 11:45:00,61.8,58.2,30.06,ENE,75,1.0,2.0,88,0.00,,,0.00,167,Wunderground v.1.15,2013-03-18 15:45:00,
2013-03-18 11:51:00,61.5,57.6,30.06,East,90,2.0,2.0,87,0.00,,,0.00,387,Wunderground v.1.15,2013-03-18 15:51:00,
2013-03-18 11:57:00,61.7,57.8,30.06,East,100,2.0,2.0,87,0.00,,,0.00,306,Wunderground v.1.15,2013-03-18 15:57:00,
2013-03-18 12:02:00,62.0,58.1,30.05,East,99,1.0,1.0,87,0.00,,,0.00,156,Wunderground v.1.15,2013-03-18 16:02:00,
2013-03-18 12:07:00,62.1,57.9,30.05,ESE,107,1.0,3.0,86,0.00,,,0.00,169,Wunderground v.1.15,2013-03-18 16:07:00,
2013-03-18 12:13:00,61.7,57.8,30.05,ESE,106,2.0,3.0,87,0.00,,,0.00,169,Wunderground v.1.15,2013-03-18 16:13:00,
2013-03-18 12:18:00,61.3,57.4,30.05,East,85,2.0,3.0,87,0.00,,,0.00,304,Wunderground v.1.15,2013-03-18 16:18:00,
2013-03-18 12:24:00,61.2,57.6,30.05,ENE,73,1.0,3.0,88,0.00,,,0.00,306,Wunderground v.1.15,2013-03-18 16:24:00,
2013-03-18 12:30:00,61.3,57.7,30.05,East,81,1.0,2.0,88,0.00,,,0.00,232,Wunderground v.1.15,2013-03-18 16:30:00,
2013-03-18 12:35:00,61.4,57.8,30.05,East,90,1.0,2.0,88,0.00,,,0.00,221,Wunderground v.1.15,2013-03-18 16:35:00,
2013-03-18 12:42:00,61.4,57.5,30.05,NNE,33,1.0,2.0,87,0.00,,,0.00,232,Wunderground v.1.15,2013-03-18 16:42:00,
2013-03-18 12:48:00,61.4,57.2,30.04,NNE,12,1.0,2.0,86,0.00,,,0.00,239,Wunderground v.1.15,2013-03-18 16:48:00,
2013-03-18 12:54:00,61.3,57.4,30.04,North,5,1.0,4.0,87,0.00,,,0.00,267,Wunderground v.1.15,2013-03-18 16:54:00,
2013-03-18 13:00:00,61.3,57.4,30.04,ENE,66,1.0,2.0,87,0.00,,,0.00,264,Wunderground v.1.15,2013-03-18 17:00:00,
2013-03-18 13:06:00,61.1,57.2,30.04,East,92,1.0,2.0,87,0.00,,,0.00,232,Wunderground v.1.15,2013-03-18 17:06:00,
2013-03-18 13:12:00,60.9,57.0,30.04,ENE,71,1.0,1.0,87,0.00,,,0.00,199,Wunderground v.1.15,2013-03-18 17:12:00,
2013-03-18 13:18:00,60.8,57.2,30.03,ENE,71,1.0,1.0,88,0.00,,,0.00,213,Wunderground v.1.15,2013-03-18 17:18:00,
2013-03-18 13:24:00,60.7,57.1,30.03,NNE,33,1.0,2.0,88,0.00,,,0.00,200,Wunderground v.1.15,2013-03-18 17:24:00,
2013-03-18 13:30:00,60.6,57.0,30.02,NNE,31,1.0,1.0,88,0.00,,,0.00,253,Wunderground v.1.15,2013-03-18 17:30:00,
2013-03-18 13:35:00,60.6,56.7,30.02,East,83,1.0,2.0,87,0.00,,,0.00,248,Wunderground v.1.15,2013-03-18 17:35:00,
2013-03-18 13:41:00,60.3,56.7,30.02,SE,125,2.0,3.0,88,0.00,,,0.00,204,Wunderground v.1.15,2013-03-18 17:41:00,
2013-03-18 13:47:00,60.1,56.8,30.02,NE,41,2.0,3.0,89,0.00,,,0.00,229,Wunderground v.1.15,2013-03-18 17:47:00,
2013-03-18 13:52:00,60.1,56.8,30.02,East,88,1.0,1.0,89,0.00,,,0.00,188,Wunderground v.1.15,2013-03-18 17:52:00,
2013-03-18 13:57:00,60.1,56.8,30.02,East,92,1.0,2.0,89,0.00,,,0.00,250,Wunderground v.1.15,2013-03-18 17:57:00,
2013-03-18 14:03:00,60.5,57.2,30.01,East,88,1.0,2.0,89,0.00,,,0.00,376,Wunderground v.1.15,2013-03-18 18:03:00,
2013-03-18 14:09:00,60.9,57.3,30.01,NE,48,1.0,2.0,88,0.00,,,0.00,341,Wunderground v.1.15,2013-03-18 18:09:00,
2013-03-18 14:15:00,61.1,57.2,30.00,NE,40,1.0,2.0,87,0.00,,,0.00,262,Wunderground v.1.15,2013-03-18 18:15:00,
2013-03-18 14:20:00,61.1,57.2,30.00,East,91,1.0,1.0,87,0.00,,,0.00,209,Wunderground v.1.15,2013-03-18 18:20:00,
2013-03-18 14:26:00,61.1,57.2,30.00,East,92,0.0,1.0,87,0.00,,,0.00,118,Wunderground v.1.15,2013-03-18 18:26:00,
2013-03-18 14:32:00,60.8,56.9,29.99,ENE,72,1.0,3.0,87,0.00,,,0.00,165,Wunderground v.1.15,2013-03-18 18:32:00,
2013-03-18 14:37:00,60.3,56.7,29.99,ENE,77,1.0,3.0,88,0.00,,,0.00,120,Wunderground v.1.15,2013-03-18 18:37:00,
2013-03-18 14:43:00,59.9,56.6,29.99,East,91,1.0,2.0,89,0.00,,,0.00,142,Wunderground v.1.15,2013-03-18 18:43:00,
2013-03-18 14:48:00,59.9,57.0,29.99,ENE,70,1.0,2.0,90,0.00,,,0.00,265,Wunderground v.1.15,2013-03-18 18:48:00,
2013-03-18 14:54:00,60.1,56.8,29.99,East,88,1.0,2.0,89,0.00,,,0.00,436,Wunderground v.1.15,2013-03-18 18:54:00,
2013-03-18 14:59:00,60.5,57.2,29.99,East,88,2.0,3.0,89,0.00,,,0.00,320,Wunderground v.1.15,2013-03-18 18:59:00,
2013-03-18 15:05:00,60.6,57.3,29.98,East,90,2.0,4.0,89,0.00,,,0.01,343,Wunderground v.1.15,2013-03-18 19:05:00,
2013-03-18 15:10:00,60.6,57.0,29.98,East,100,2.0,3.0,88,0.00,,,0.01,279,Wunderground v.1.15,2013-03-18 19:10:00,
2013-03-18 15:15:00,60.5,57.2,29.98,ENE,76,2.0,3.0,89,0.00,,,0.01,290,Wunderground v.1.15,2013-03-18 19:15:00,
2013-03-18 15:21:00,60.7,57.4,29.98,East,85,2.0,2.0,89,0.00,,,0.01,264,Wunderground v.1.15,2013-03-18 19:21:00,
2013-03-18 15:26:00,61.0,57.7,29.98,East,88,1.0,2.0,89,0.00,,,0.01,271,Wunderground v.1.15,2013-03-18 19:26:00,
2013-03-18 15:32:00,61.4,58.1,29.97,East,88,1.0,1.0,89,0.00,,,0.01,230,Wunderground v.1.15,2013-03-18 19:32:00,
2013-03-18 15:37:00,61.6,58.0,29.97,NNE,27,1.0,5.0,88,0.00,,,0.01,200,Wunderground v.1.15,2013-03-18 19:37:00,
2013-03-18 15:43:00,61.4,57.8,29.97,SE,131,1.0,2.0,88,0.00,,,0.01,213,Wunderground v.1.15,2013-03-18 19:43:00,
2013-03-18 15:48:00,61.4,57.8,29.97,NE,53,1.0,2.0,88,0.00,,,0.01,197,Wunderground v.1.15,2013-03-18 19:48:00,
2013-03-18 15:54:00,61.4,57.8,29.97,SE,143,1.0,2.0,88,0.00,,,0.01,276,Wunderground v.1.15,2013-03-18 19:54:00,
2013-03-18 16:00:00,61.4,57.8,29.95,East,87,1.0,1.0,88,0.00,,,0.01,265,Wunderground v.1.15,2013-03-18 20:00:00,
2013-03-18 16:06:00,61.5,57.9,29.95,ESE,107,1.0,2.0,88,0.00,,,0.01,250,Wunderground v.1.15,2013-03-18 20:06:00,
2013-03-18 16:11:00,61.5,57.9,29.95,ENE,78,1.0,1.0,88,0.00,,,0.01,285,Wunderground v.1.15,2013-03-18 20:11:00,
2013-03-18 16:17:00,61.5,58.2,29.95,East,83,2.0,3.0,89,0.00,,,0.01,243,Wunderground v.1.15,2013-03-18 20:17:00,
2013-03-18 16:22:00,61.6,58.3,29.95,East,83,2.0,2.0,89,0.00,,,0.01,223,Wunderground v.1.15,2013-03-18 20:22:00,
2013-03-18 16:28:00,61.6,58.0,29.95,ESE,112,2.0,3.0,88,0.00,,,0.01,190,Wunderground v.1.15,2013-03-18 20:28:00,
2013-03-18 16:33:00,61.4,58.1,29.94,East,91,2.0,2.0,89,0.00,,,0.01,148,Wunderground v.1.15,2013-03-18 20:33:00,
2013-03-18 16:39:00,61.3,58.0,29.94,East,97,2.0,3.0,89,0.00,,,0.01,146,Wunderground v.1.15,2013-03-18 20:39:00,
2013-03-18 16:45:00,61.4,58.1,29.94,ESE,112,1.0,3.0,89,0.00,,,0.01,130,Wunderground v.1.15,2013-03-18 20:45:00,
2013-03-18 16:50:00,61.5,58.5,29.94,East,89,1.0,2.0,90,0.00,,,0.01,102,Wunderground v.1.15,2013-03-18 20:50:00,
2013-03-18 16:56:00,61.5,58.5,29.94,SE,131,1.0,3.0,90,0.00,,,0.01,76,Wunderground v.1.15,2013-03-18 20:56:00,
2013-03-18 17:02:00,61.6,58.6,29.95,NW,324,1.0,1.0,90,0.00,,,0.01,83,Wunderground v.1.15,2013-03-18 21:02:00,
2013-03-18 17:07:00,61.8,58.8,29.95,East,83,1.0,2.0,90,0.00,,,0.01,109,Wunderground v.1.15,2013-03-18 21:07:00,
2013-03-18 17:13:00,62.0,59.0,29.95,SE,126,1.0,2.0,90,0.00,,,0.01,176,Wunderground v.1.15,2013-03-18 21:13:00,
2013-03-18 17:18:00,62.2,59.2,29.94,East,79,1.0,3.0,90,0.00,,,0.01,167,Wunderground v.1.15,2013-03-18 21:18:00,
2013-03-18 17:24:00,62.4,59.7,29.94,SE,127,2.0,2.0,91,0.00,,,0.01,160,Wunderground v.1.15,2013-03-18 21:24:00,
2013-03-18 17:30:00,62.6,59.9,29.94,ENE,74,1.0,2.0,91,0.00,,,0.01,195,Wunderground v.1.15,2013-03-18 21:30:00,
2013-03-18 17:35:00,62.7,59.7,29.94,East,88,1.0,2.0,90,0.00,,,0.01,109,Wunderground v.1.15,2013-03-18 21:35:00,
2013-03-18 17:42:00,62.9,59.9,29.94,East,87,1.0,1.0,90,0.00,,,0.01,120,Wunderground v.1.15,2013-03-18 21:42:00,
2013-03-18 17:48:00,62.9,59.9,29.94,East,82,1.0,1.0,90,0.00,,,0.01,105,Wunderground v.1.15,2013-03-18 21:48:00,
2013-03-18 17:54:00,63.0,60.0,29.94,East,81,1.0,1.0,90,0.00,,,0.01,121,Wunderground v.1.15,2013-03-18 21:54:00,
2013-03-18 17:59:00,63.0,60.0,29.94,East,81,0.0,1.0,90,0.00,,,0.01,111,Wunderground v.1.15,2013-03-18 21:59:00,
2013-03-18 18:05:00,63.0,60.0,29.94,SE,134,1.0,1.0,90,0.00,,,0.01,81,Wunderground v.1.15,2013-03-18 22:05:00,
2013-03-18 18:10:00,62.9,59.9,29.94,SE,133,1.0,2.0,90,0.00,,,0.01,83,Wunderground v.1.15,2013-03-18 22:10:00,
2013-03-18 18:15:00,62.8,59.8,29.93,ESE,123,1.0,2.0,90,0.00,,,0.01,91,Wunderground v.1.15,2013-03-18 22:15:00,
2013-03-18 18:21:00,62.6,59.9,29.93,ESE,123,1.0,2.0,91,0.00,,,0.01,91,Wunderground v.1.15,2013-03-18 22:21:00,
2013-03-18 18:27:00,62.4,59.7,29.93,ESE,106,1.0,2.0,91,0.00,,,0.01,47,Wunderground v.1.15,2013-03-18 22:27:00,
2013-03-18 18:32:00,62.2,59.5,29.91,East,99,1.0,2.0,91,0.00,,,0.01,40,Wunderground v.1.15,2013-03-18 22:32:00,
2013-03-18 18:38:00,62.0,59.3,29.91,East,97,1.0,3.0,91,0.00,,,0.01,35,Wunderground v.1.15,2013-03-18 22:38:00,
2013-03-18 18:44:00,61.7,59.4,29.91,East,97,2.0,2.0,92,0.00,,,0.01,30,Wunderground v.1.15,2013-03-18 22:44:00,
2013-03-18 18:49:00,61.4,59.1,29.91,East,90,1.0,2.0,92,0.00,,,0.01,26,Wunderground v.1.15,2013-03-18 22:49:00,
2013-03-18 18:55:00,61.3,59.3,29.91,East,90,1.0,2.0,93,0.00,,,0.01,23,Wunderground v.1.15,2013-03-18 22:55:00,
2013-03-18 19:01:00,61.3,59.3,29.91,East,96,1.0,1.0,93,0.00,,,0.01,19,Wunderground v.1.15,2013-03-18 23:01:00,
2013-03-18 19:07:00,61.1,59.1,29.91,ENE,58,1.0,2.0,93,0.00,,,0.01,16,Wunderground v.1.15,2013-03-18 23:07:00,
2013-03-18 19:13:00,61.0,59.0,29.91,East,83,1.0,1.0,93,0.00,,,0.01,12,Wunderground v.1.15,2013-03-18 23:13:00,
2013-03-18 19:18:00,60.9,58.9,29.90,SE,140,1.0,2.0,93,0.00,,,0.01,7,Wunderground v.1.15,2013-03-18 23:18:00,
2013-03-18 19:24:00,60.8,59.1,29.90,SE,140,1.0,1.0,94,0.00,,,0.01,0,Wunderground v.1.15,2013-03-18 23:24:00,
2013-03-18 19:30:00,60.7,59.0,29.90,ENE,59,0.0,1.0,94,0.00,,,0.01,0,Wunderground v.1.15,2013-03-18 23:30:00,
2013-03-18 19:35:00,60.6,58.9,29.90,ESE,102,0.0,1.0,94,0.00,,,0.01,0,Wunderground v.1.15,2013-03-18 23:35:00,
2013-03-18 19:42:00,60.5,58.8,29.90,ESE,102,0.0,3.0,94,0.00,,,0.01,0,Wunderground v.1.15,2013-03-18 23:42:00,
2013-03-18 19:47:00,60.5,58.8,29.89,ESE,102,1.0,3.0,94,0.00,,,0.01,0,Wunderground v.1.15,2013-03-18 23:47:00,
2013-03-18 19:52:00,60.5,59.1,29.89,ESE,102,1.0,3.0,95,0.00,,,0.01,0,Wunderground v.1.15,2013-03-18 23:52:00,
2013-03-18 19:58:00,60.5,59.1,29.89,ESE,102,1.0,3.0,95,0.00,,,0.01,0,Wunderground v.1.15,2013-03-18 23:58:00,
2013-03-18 20:03:00,60.4,58.7,29.88,ESE,102,0.0,1.0,94,0.00,,,0.01,0,Wunderground v.1.15,2013-03-19 00:03:00,
2013-03-18 20:09:00,60.4,58.7,29.88,ESE,102,0.0,1.0,94,0.00,,,0.01,0,Wunderground v.1.15,2013-03-19 00:09:00,
2013-03-18 20:14:00,60.3,58.9,29.88,ESE,102,0.0,2.0,95,0.00,,,0.01,0,Wunderground v.1.15,2013-03-19 00:14:00,
2013-03-18 20:19:00,60.3,58.9,29.88,ESE,102,0.0,2.0,95,0.00,,,0.01,0,Wunderground v.1.15,2013-03-19 00:19:00,
2013-03-18 20:25:00,60.2,58.8,29.88,ESE,102,0.0,0.0,95,0.00,,,0.01,0,Wunderground v.1.15,2013-03-19 00:25:00,
2013-03-18 20:32:00,60.2,58.8,29.89,ESE,102,0.0,0.0,95,0.00,,,0.01,0,Wunderground v.1.15,2013-03-19 00:32:00,
2013-03-18 20:37:00,60.2,58.8,29.89,ESE,102,0.0,0.0,95,0.00,,,0.01,0,Wunderground v.1.15,2013-03-19 00:37:00,
2013-03-18 20:42:00,60.3,58.9,29.89,ESE,102,0.0,0.0,95,0.00,,,0.01,0,Wunderground v.1.15,2013-03-19 00:42:00,
2013-03-18 20:48:00,60.3,59.2,29.89,ESE,102,0.0,0.0,96,0.00,,,0.01,0,Wunderground v.1.15,2013-03-19 00:48:00,
2013-03-18 20:54:00,60.3,59.2,29.89,ESE,102,0.0,0.0,96,0.00,,,0.01,0,Wunderground v.1.15,2013-03-19 00:54:00,
2013-03-18 21:00:00,60.3,59.2,29.90,ESE,102,0.0,0.0,96,0.00,,,0.01,0,Wunderground v.1.15,2013-03-19 01:00:00,
2013-03-18 21:05:00,60.5,59.4,29.90,ESE,102,0.0,0.0,96,0.00,,,0.01,0,Wunderground v.1.15,2013-03-19 01:05:00,
2013-03-18 21:11:00,60.8,59.7,29.90,ESE,102,0.0,0.0,96,0.00,,,0.01,0,Wunderground v.1.15,2013-03-19 01:11:00,
2013-03-18 21:16:00,61.0,59.9,29.89,ESE,102,0.0,0.0,96,0.00,,,0.01,0,Wunderground v.1.15,2013-03-19 01:16:00,
2013-03-18 21:22:00,61.1,60.0,29.89,ESE,102,0.0,0.0,96,0.00,,,0.01,0,Wunderground v.1.15,2013-03-19 01:22:00,
2013-03-18 21:28:00,61.3,60.2,29.89,ESE,102,0.0,1.0,96,0.00,,,0.01,0,Wunderground v.1.15,2013-03-19 01:28:00,
2013-03-18 21:33:00,61.3,60.2,29.88,ESE,102,0.0,1.0,96,0.00,,,0.01,0,Wunderground v.1.15,2013-03-19 01:33:00,
2013-03-18 21:39:00,61.3,60.2,29.88,ESE,102,0.0,1.0,96,0.00,,,0.01,0,Wunderground v.1.15,2013-03-19 01:39:00,
2013-03-18 21:44:00,61.3,60.2,29.88,ESE,102,0.0,1.0,96,0.00,,,0.01,0,Wunderground v.1.15,2013-03-19 01:44:00,
2013-03-18 21:50:00,61.1,60.0,29.88,ENE,65,1.0,1.0,96,0.00,,,0.01,0,Wunderground v.1.15,2013-03-19 01:50:00,
2013-03-18 21:55:00,61.0,59.9,29.88,ENE,65,1.0,2.0,96,0.00,,,0.01,0,Wunderground v.1.15,2013-03-19 01:55:00,
2013-03-18 22:01:00,60.8,59.7,29.86,ENE,65,0.0,2.0,96,0.00,,,0.01,0,Wunderground v.1.15,2013-03-19 02:01:00,
2013-03-18 22:06:00,60.8,59.7,29.86,ENE,67,1.0,2.0,96,0.00,,,0.01,0,Wunderground v.1.15,2013-03-19 02:06:00,
2013-03-18 22:12:00,60.9,59.8,29.86,ESE,108,1.0,1.0,96,0.00,,,0.01,0,Wunderground v.1.15,2013-03-19 02:12:00,
2013-03-18 22:18:00,60.9,59.8,29.87,ESE,108,0.0,1.0,96,0.00,,,0.01,0,Wunderground v.1.15,2013-03-19 02:18:00,
2013-03-18 22:24:00,61.0,59.9,29.87,South,171,0.0,2.0,96,0.00,,,0.01,0,Wunderground v.1.15,2013-03-19 02:24:00,
2013-03-18 22:30:00,61.0,59.9,29.88,SE,135,1.0,1.0,96,0.00,,,0.01,0,Wunderground v.1.15,2013-03-19 02:30:00,
2013-03-18 22:35:00,61.1,60.0,29.88,SE,131,1.0,1.0,96,0.00,,,0.01,0,Wunderground v.1.15,2013-03-19 02:35:00,
2013-03-18 22:40:00,61.2,60.1,29.88,SSW,206,1.0,1.0,96,0.00,,,0.01,0,Wunderground v.1.15,2013-03-19 02:40:00,
2013-03-18 22:46:00,61.3,60.2,29.88,SSE,147,1.0,2.0,96,0.00,,,0.01,0,Wunderground v.1.15,2013-03-19 02:46:00,
2013-03-18 22:51:00,61.6,60.4,29.88,East,92,1.0,2.0,96,0.00,,,0.01,0,Wunderground v.1.15,2013-03-19 02:51:00,
2013-03-18 22:56:00,61.8,60.4,29.88,NE,44,1.0,2.0,95,0.00,,,0.01,0,Wunderground v.1.15,2013-03-19 02:56:00,
2013-03-18 23:01:00,61.9,60.5,29.88,ESE,116,1.0,1.0,95,0.00,,,0.01,0,Wunderground v.1.15,2013-03-19 03:01:00,
2013-03-18 23:07:00,62.0,60.6,29.88,ESE,112,1.0,1.0,95,0.00,,,0.01,0,Wunderground v.1.15,2013-03-19 03:07:00,
2013-03-18 23:13:00,62.0,60.6,29.88,ENE,78,0.0,1.0,95,0.00,,,0.01,0,Wunderground v.1.15,2013-03-19 03:13:00,
2013-03-18 23:18:00,61.9,60.5,29.88,South,184,0.0,2.0,95,0.00,,,0.01,0,Wunderground v.1.15,2013-03-19 03:18:00,
2013-03-18 23:24:00,61.8,60.4,29.88,SSW,194,0.0,1.0,95,0.00,,,0.01,0,Wunderground v.1.15,2013-03-19 03:24:00,
2013-03-18 23:29:00,61.6,59.9,29.88,NW,310,0.0,4.0,94,0.00,,,0.01,0,Wunderground v.1.15,2013-03-19 03:29:00,
2013-03-18 23:35:00,61.4,60.0,29.87,NW,317,0.0,1.0,95,0.00,,,0.01,0,Wunderground v.1.15,2013-03-19 03:35:00,
2013-03-18 23:40:00,61.3,59.9,29.87,West,267,1.0,7.0,95,0.00,,,0.01,0,Wunderground v.1.15,2013-03-19 03:40:00,
2013-03-18 23:46:00,60.8,59.1,29.92,West,276,3.0,11.0,94,1.15,,,0.07,0,Wunderground v.1.15,2013-03-19 03:46:00,
2013-03-18 23:52:00,60.1,58.7,29.92,SW,226,4.0,4.0,95,0.38,,,0.15,0,Wunderground v.1.15,2013-03-19 03:52:00,
2013-03-18 23:58:00,59.7,58.3,29.92,SSW,198,3.0,7.0,95,0.22,,,0.17,0,Wunderground v.1.15,2013-03-19 03:58:00,